EW2692 Weather Reports


time (UTC)temp
F
wind
direction
speed
knots
gust
knots
rain 1hr
in
rain 24hr
in
rain mn
in
humidity
%
barometer
mb
20260906213036 85 333 1.7 5.2 0.00 0.01 0.01 60 938.4
20260906211532 85 306 0.9 4.3 0.00 0.01 0.01 61 938.8
20260906210113 85 343 0.9 4.3 0.00 0.01 0.01 60 938.8
20260906204528 84 28 0.9 5.2 0.00 0.01 0.01 62 939.1
20260906203026 83 302 2.6 7.0 0.00 0.01 0.01 63 939.4
20260906201522 83 40 1.7 5.2 0.00 0.01 0.01 64 939.5
20260906200021 82 13 0.9 5.2 0.00 0.01 0.01 65 939.4
20260906194519 80 290 2.6 8.7 0.00 0.01 0.01 68 939.5
20260906193015 80 276 2.6 7.8 0.00 0.01 0.01 70 939.6
20260906191512 80 295 0.9 7.0 0.00 0.01 0.01 72 939.9
20260906190011 79 313 1.7 7.8 0.00 0.01 0.01 73 940.1
20260906184506 78 289 3.5 7.0 0.00 0.01 0.01 74 940.1
20260906183005 77 284 1.7 7.0 0.00 0.01 0.01 76 940.1
20260906181629 76 288 1.7 7.0 0.00 0.01 0.01 79 940.3
20260906180054 75 293 1.7 6.1 0.00 0.01 0.01 81 940.2
20260906174553 74 281 1.7 6.1 0.00 0.01 0.01 84 940.3
20260906173046 73 287 1.7 7.0 0.00 0.01 0.01 86 940.2
20260906171542 72 298 1.7 8.7 0.00 0.01 0.01 90 940.3
20260906170039 71 295 2.6 6.1 0.00 0.01 0.01 91 940.4
20260906164535 69 15 0.0 4.3 0.00 0.01 0.01 94 940.6
20260906163033 68 21 0.9 5.2 0.00 0.01 0.01 95 940.4
20260906161532 68 35 0.9 5.2 0.01 0.01 0.01 96 940.1
20260906160030 67 26 0.0 3.5 0.01 0.01 0.01 97 940.0
20260906154529 67 34 0.0 3.5 0.01 0.01 0.01 97 940.1
20260906153032 66 62 0.0 4.3 0.01 0.01 0.01 96 940.3
20260906151528 67 94 0.0 3.5 0.00 0.00 0.00 95 941.4
20260906150031 67 113 0.9 6.1 0.00 0.00 0.00 96 941.2
20260906144526 67 15 1.7 8.7 0.00 0.00 0.00 96 940.3
20260906143023 67 73 0.9 4.3 0.00 0.00 0.00 97 940.4
20260906141522 66 22 0.0 5.2 0.00 0.00 0.00 97 940.3
20260906140023 66 343 0.0 4.3 0.00 0.00 0.00 97 940.8
20260906134521 66 315 0.0 1.7 0.00 0.00 0.00 97 941.2
20260906133022 66 311 0.0 1.7 0.00 0.00 0.00 97 941.5
20260906131520 65 311 0.0 1.7 0.00 0.00 0.00 98 941.8
20260906130023 65 311 0.0 1.7 0.00 0.00 0.00 98 941.8
20260906124517 64 311 0.0 1.7 0.00 0.00 0.00 97 941.6
20260906123026 64 311 0.0 0.9 0.00 0.00 0.00 97 941.5
20260906121516 64 311 0.0 2.6 0.00 0.00 0.00 97 941.5
20260906120015 63 318 0.0 1.7 0.00 0.00 0.00 97 941.6
20260906114533 63 318 0.0 1.7 0.00 0.00 0.00 96 941.5
20260906113013 64 323 0.0 0.9 0.00 0.00 0.00 96 941.4
20260906111521 64 323 0.0 1.7 0.00 0.00 0.00 96 941.5
20260906110011 64 328 0.0 1.7 0.00 0.00 0.00 96 941.2
20260906104513 64 31 0.0 0.9 0.00 0.00 0.00 96 940.7
20260906103008 64 30 0.0 1.7 0.00 0.00 0.00 96 940.5
20260906101507 65 29 0.0 1.7 0.00 0.00 0.00 96 940.6
20260906100006 65 29 0.0 0.9 0.00 0.00 0.00 95 940.6
20260906094504 65 25 0.0 2.6 0.00 0.00 0.00 95 940.6
20260906093002 65 22 0.0 2.6 0.00 0.00 0.00 95 940.6
20260906091502 65 15 0.0 1.7 0.00 0.00 0.00 95 940.6
20260906090104 65 11 0.0 0.9 0.00 0.00 0.00 95 940.8
20260906084558 66 13 0.0 0.9 0.00 0.00 0.00 94 940.9
20260906083056 66 13 0.0 1.7 0.00 0.00 0.00 94 940.8
20260906081559 66 15 0.0 1.7 0.00 0.00 0.00 93 940.8
20260906080055 67 15 0.0 1.7 0.00 0.00 0.00 93 941.1
20260906074553 67 13 0.0 1.7 0.00 0.00 0.00 93 941.0
20260906073048 67 15 0.0 1.7 0.00 0.00 0.00 93 941.2
20260906071546 68 9 0.0 2.6 0.00 0.00 0.00 93 941.3
20260906070045 68 23 0.0 2.6 0.00 0.00 0.00 93 941.3
20260906064544 67 355 0.0 0.9 0.00 0.00 0.00 92 941.6
20260906063042 68 355 0.0 0.9 0.00 0.00 0.00 92 941.8
20260906061540 68 355 0.0 0.9 0.00 0.00 0.00 91 941.7
20260906060053 68 355 0.0 0.9 0.00 0.00 0.00 90 941.7
20260906054538 69 355 0.0 0.0 0.00 0.00 0.00 88 941.7
20260906053038 69 355 0.0 2.6 0.00 0.00 0.00 88 941.6
20260906051536 70 350 0.0 1.7 0.00 0.00 0.00 87 941.7
20260906050037 70 350 0.0 2.6 0.00 0.00 0.00 86 941.7
20260906044535 71 5 0.0 2.6 0.00 0.00 0.00 85 941.8
20260906043039 71 16 0.0 1.7 0.00 0.00 0.00 84 941.8
20260906041536 72 17 0.9 4.3 0.00 0.00 0.00 82 941.7
20260906040037 73 42 0.0 3.5 0.00 0.00 0.00 81 941.7
20260906034535 73 13 0.9 7.0 0.00 0.00 0.00 80 941.7
20260906033031 74 19 1.7 7.0 0.00 0.00 0.00 78 941.7
20260906031556 74 355 1.7 7.0 0.00 0.00 0.00 77 941.6
20260906030030 75 27 0.9 7.0 0.00 0.00 0.00 77 941.6
20260906024538 75 32 1.7 6.1 0.00 0.00 0.00 76 941.6
20260906023031 75 340 1.7 8.7 0.00 0.00 0.00 75 941.7
20260906021527 75 57 0.9 5.2 0.00 0.00 0.00 76 941.4
20260906020024 75 22 0.9 3.5 0.00 0.00 0.00 75 941.2
20260906014526 76 34 0.9 7.0 0.00 0.00 0.00 74 940.9
20260906013021 77 14 0.9 3.5 0.00 0.00 0.00 71 940.7
20260906011519 78 17 0.9 4.3 0.00 0.00 0.00 69 940.5
20260906010018 79 9 1.7 5.2 0.00 0.00 0.00 68 940.4
20260906004518 80 26 0.9 4.3 0.00 0.00 0.00 66 940.4
20260906003016 80 37 0.9 4.3 0.00 0.00 0.00 66 940.3
20260906001515 81 355 1.7 5.2 0.00 0.00 0.00 64 940.2
20260906000015 81 329 1.7 5.2 0.00 0.00 0.00 63 940.0
20260905234514 82 11 1.7 4.3 0.00 0.00 0.00 62 939.7
20260905233017 82 18 0.9 4.3 0.00 0.00 0.00 62 939.8
20260905231514 82 17 0.9 3.5 0.00 0.00 0.00 61 939.9
20260905230013 82 17 1.7 5.2 0.00 0.00 0.00 63 939.8
20260905224513 81 9 0.9 4.3 0.00 0.00 0.00 63 939.8
20260905223011 82 45 1.7 5.2 0.00 0.00 0.00 63 940.0
20260905221511 82 18 0.9 6.1 0.00 0.00 0.00 61 939.9
20260905220013 83 20 1.7 6.1 0.00 0.00 0.00 61 940.2